Flag for Germany Weather past 2 weeks in Schwäbisch Hall, Baden-Württemberg, Germany

Now
50 °F

Sunny.


Feels Like: 47 °F
Forecast: 34 / 41 °F
Wind: 7 mph from West

Location: Oehringen

Current Time: Mar 3, 2015 at 5:59:21 PM

Latest Report: Mar 3, 2015 at 5:00 PM


Visibility: 34 mi

Pressure: 30.10 "Hg

Humidity: 46%

Dew point: 29 °F

Location of Schwäbisch HallLocation

Historic Weather in Schwäbisch Hall — Graph

°F

Schwäbisch Hall temperature yesterday

Maximum temperature yesterday: 50 °F (at 4:00 AM)
Minimum temperature yesterday: 38 °F (at 11:00 PM)
Average temperature yesterday: 44 °F

Past Weeks' High & Low Weather Summary

 TemperatureHumidityPressure
High57 °F (Feb 20, 4:00 PM)100% (Feb 17, 5:00 AM)30.79 "Hg (Feb 17, 5:00 AM)
Low24 °F (Feb 20, 7:00 AM)34% (Feb 21, 1:00 AM)29.53 "Hg (Feb 21, 11:00 AM)
Average38 °F78%30.05 "Hg
* Reported Feb 16 5:00 PM — Mar 3 5:00 PM, Schwäbisch Hall, Weather by CustomWeather, © 2015

Note: Actual official high and low records may vary slightly from our data, if they occured in-between our weather recording intervals... More about our weather records

Advertising

Schwäbisch Hall weather history for previous 24 hours

 ConditionsComfort  
Time TempWeatherWind HumidityBarometerVisibility
5:00 PM
Tue, Mar 3
50 °FSunny.7 mph46%30.10 "Hg34 mi
4:00 PM50 °FOvercast.3 mph48%30.12 "Hg34 mi
3:00 PM50 °FPassing clouds.6 mph46%30.14 "Hg37 mi
2:00 PM48 °FPartly sunny.5 mph50%30.16 "Hg28 mi
1:00 PM47 °FSunny.8 mph50%30.19 "Hg22 mi
12:00 PM46 °FScattered clouds.6 mph55%30.20 "Hg31 mi
11:00 AM43 °FSunny.9 mph61%30.23 "Hg16 mi
10:00 AM41 °FSunny.8 mph63%30.23 "Hg16 mi
9:00 AM40 °FOvercast.5 mph68%30.23 "Hg22 mi
8:00 AM36 °FPassing clouds.3 mph77%30.22 "Hg19 mi
7:00 AM35 °FOvercast.3 mph78%30.21 "Hg19 mi
6:00 AM36 °FPassing clouds.3 mph75%30.21 "Hg22 mi
5:00 AM36 °FPassing clouds.5 mph76%30.20 "Hg28 mi
4:00 AM35 °FOvercast.3 mph79%30.20 "Hg22 mi
3:00 AM36 °FClear.6 mph79%30.19 "Hg25 mi
2:00 AM36 °FClear.6 mph81%30.18 "Hg25 mi
1:00 AM37 °FClear.7 mph79%30.16 "Hg25 mi
12:00 AM37 °FClear.8 mph74%30.13 "Hg28 mi
11:00 PM
Mon, Mar 2
38 °FClear.8 mph73%30.09 "Hg25 mi
10:00 PM39 °FPassing clouds.9 mph78%30.05 "Hg31 mi
9:00 PM39 °FPassing clouds.8 mph81%29.99 "Hg25 mi
8:00 PM39 °FOvercast.9 mph82%29.95 "Hg43 mi
7:00 PM39 °FOvercast.7 mph88%29.93 "Hg40 mi
6:00 PM43 °FLight rain. Overcast.7 mph75%29.85 "Hg6 mi
5:00 PM45 °FOvercast.8 mph63%29.84 "Hg37 mi
Weather by CustomWeather, © 2015

See weather overviewHow to use our weather pages